Abetone, Italy 16 day weather forecast

Slopes altitude range 1200 m - 1940m

Number of lifts: 25 Pistes: 70km

In some cases the lift and piste totals shown are for the ski domain (e.g. Three Valleys) rather than individual resort (e.g. Courchevel)

Overview

The 16 day weather forecast is fully updated 4 times every day.

    • Thu 21 FEB 2019
    • Thu 21
    • 6C 14C
    • Fri 22 FEB 2019
    • Fri 22
    • 5C 16C
    • Sat 23 FEB 2019
    • Sat 23
    • 4C 10C
    • Sun 24 FEB 2019
    • Sun 24
    • 1C 10C
    • Mon 25 FEB 2019
    • Mon 25
    • 3C 11C
    • Tue 26 FEB 2019
    • Tue 26
    • 6C 18C
    • Wed 27 FEB 2019
    • Wed 27
    • 9C 20C
    • Thu 28 FEB 2019
    • Thu 28
    • 8C 17C
    • Fri 01 MAR 2019
    • Fri 01
    • 4C 14C
    • Sat 02 MAR 2019
    • Sat 02
    • 4C 13C
    • Sun 03 MAR 2019
    • Sun 03
    • 6C 14C
    • Mon 04 MAR 2019
    • Mon 04
    • 7C 16C
    • Tue 05 MAR 2019
    • Tue 05
    • 8C 14C
    • Wed 06 MAR 2019
    • Wed 06
    • 9C 14C
    • Thu 07 MAR 2019
    • Thu 07
    • 8C 11C
    • Fri 08 MAR 2019
    • Fri 08
    • 2C 6C

Date:

Time Type 0°C level Temp Chill Snow Cloud Speed Gust Dir Press
18:00 2512m 14°C 14_2 0cm 14% 2mph 3mph 1027mB
21:00 2516m 6°C 6_2 0cm 30% 2mph 3mph 1027mB
0:00 2442m 5°C 5_3 0cm 29% 3mph 3mph 1026mB
3:00 2349m 5°C 5_3 0cm 1% 3mph 4mph 1026mB
6:00 2371m 5°C 5_4 0cm 1% 4mph 5mph 1025mB
9:00 2449m 5°C 5_1 0cm 0% 1mph 2mph 1025mB
12:00 2437m 16°C 16_2 0cm 0% 2mph 4mph 1024mB
15:00 2335m 16°C 16_0 0cm 0% 0mph 4mph 1024mB
18:00 2270m 16°C 16_5 0cm 0% 5mph 6mph 1026mB
21:00 2195m 8°C 8_6 0cm 0% 6mph 7mph 1028mB
0:00 2100m 7°C 7_6 0cm 0% 6mph 7mph 1030mB
3:00 2105m 5°C 5_6 0cm 0% 6mph 8mph 1030mB
6:00 1952m 4°C 4_5 0cm 0% 5mph 8mph 1031mB
9:00 1672m 4°C 4_6 0cm 0% 6mph 10mph 1033mB
12:00 1394m 10°C 10_6 0cm 0% 6mph 9mph 1033mB
15:00 1347m 10°C 10_7 0cm 0% 7mph 11mph 1033mB
18:00 1616m 10°C 10_7 0cm 0% 7mph 13mph 1034mB
21:00 1474m 2°C 2_7 0cm 0% 7mph 13mph 1036mB
0:00 1442m 1°C 1_7 0cm 9% 7mph 13mph 1036mB
3:00 2029m 1°C 1_7 0cm 0% 7mph 12mph 1035mB
6:00 1997m 1°C 1_6 0cm 0% 6mph 11mph 1035mB
9:00 1940m 1°C 1_6 0cm 0% 6mph 11mph 1036mB
12:00 1697m 10°C 10_5 0cm 0% 5mph 11mph 1035mB
15:00 2140m 11°C 11_5 0cm 0% 5mph 10mph 1033mB
18:00 2250m 11°C 11_6 0cm 0% 6mph 7mph 1033mB
21:00 2175m 4°C 4_6 0cm 0% 6mph 7mph 1034mB
0:00 2011m 3°C 3_6 0cm 0% 6mph 7mph 1034mB
3:00 1925m 3°C 3_7 0cm 0% 7mph 10mph 1034mB
6:00 1410m 3°C 3_7 0cm 0% 7mph 14mph 1034mB
9:00 1244m 3°C 3_11 0cm 0% 11mph 35mph 1036mB
12:00 2153m 11°C 11_10 0cm 11% 10mph 21mph 1036mB
15:00 2455m 11°C 11_8 0cm 19% 8mph 17mph 1034mB
18:00 2601m 11°C 11_7 0cm 10% 7mph 12mph 1034mB
21:00 2613m 4°C 4_7 0cm 0% 7mph 13mph 1034mB
0:00 2610m 4°C 4_7 0cm 0% 7mph 11mph 1033mB
3:00 2597m 5°C 5_7 0cm 32% 7mph 8mph 1031mB
6:00 2626m 5°C 5_7 0cm 26% 7mph 8mph 1029mB
9:00 2919m 6°C 6_4 0cm 18% 4mph 8mph 1029mB
12:00 2956m 18°C 18_3 0cm 26% 3mph 8mph 1028mB
15:00 2835m 18°C 18_2 0cm 40% 2mph 6mph 1026mB
18:00 2900m 18°C 18_5 0cm 22% 5mph 6mph 1026mB
21:00 2965m 9°C 9_6 0cm 2% 6mph 7mph 1026mB
0:00 3000m 9°C 9_6 0cm 1% 6mph 7mph 1025mB
3:00 3006m 9°C 9_5 0cm 0% 5mph 6mph 1024mB
6:00 3008m 9°C 9_5 0cm 0% 5mph 6mph 1024mB
9:00 3020m 9°C 9_2 0cm 0% 2mph 4mph 1024mB
12:00 3010m 20°C 20_2 0cm 1% 2mph 2mph 1024mB
15:00 3024m 20°C 20_3 0cm 5% 3mph 2mph 1023mB
18:00 3020m 20°C 20_4 0cm 3% 4mph 5mph 1024mB
21:00 3051m 10°C 10_5 0cm 0% 5mph 5mph 1025mB
0:00 3079m 9°C 9_4 0cm 0% 4mph 5mph 1024mB
3:00 3143m 9°C 9_4 0cm 0% 4mph 5mph 1023mB
6:00 3146m 8°C 8_4 0cm 0% 4mph 5mph 1023mB
9:00 3165m 8°C 8_1 0cm 0% 1mph 1mph 1023mB
12:00 3219m 17°C 17_5 0cm 0% 5mph 5mph 1022mB
15:00 3216m 17°C 17_5 0cm 0% 5mph 7mph 1021mB
18:00 3208m 17°C 17_3 0cm 0% 3mph 3mph 1022mB
21:00 3182m 7°C 7_2 0cm 0% 2mph 3mph 1022mB
0:00 3125m 6°C 6_2 0cm 0% 2mph 3mph 1022mB
3:00 3090m 4°C 4_2 0cm 0% 2mph 2mph 1022mB
6:00 3018m 4°C 4_1 0cm 0% 1mph 2mph 1023mB
9:00 2956m 4°C 4_4 0cm 0% 4mph 6mph 1024mB
12:00 2871m 14°C 14_7 0cm 0% 7mph 8mph 1023mB
15:00 2819m 14°C 14_8 0cm 0% 8mph 9mph 1022mB
18:00 2795m 14°C 14_3 0cm 28% 3mph 4mph 1022mB
21:00 2710m 6°C 6_2 0cm 87% 2mph 3mph 1023mB
0:00 2606m 5°C 5_1 0cm 88% 1mph 2mph 1023mB
3:00 2534m 4°C 4_1 0cm 98% 1mph 2mph 1022mB
6:00 2502m 4°C 4_1 0cm 99% 1mph 2mph 1023mB
9:00 2443m 4°C 4_5 0cm 100% 5mph 7mph 1023mB
12:00 2375m 13°C 13_8 0cm 100% 8mph 10mph 1022mB
15:00 2372m 13°C 13_9 0cm 99% 9mph 12mph 1020mB
18:00 2373m 13°C 13_5 0cm 98% 5mph 10mph 1020mB
21:00 2553m 6°C 6_5 0cm 59% 5mph 11mph 1020mB
0:00 2711m 6°C 6_7 0cm 69% 7mph 12mph 1018mB
3:00 2723m 6°C 6_7 0cm 100% 7mph 13mph 1015mB
6:00 2785m 6°C 6_6 0cm 98% 6mph 11mph 1014mB
9:00 2713m 6°C 6_6 0cm 66% 6mph 9mph 1015mB
12:00 2687m 14°C 14_7 0cm 45% 7mph 7mph 1015mB
Morning 0mm 0 2632m 8°C 8_2 0cm 44% 2mph 3mph 1020mB
Afternoon 0mm 0 3111m 16°C 16_10 0cm 55% 10mph 15mph 1020mB
Morning 0mm 0 2777m 9°C 9_12 0cm 80% 12mph 25mph 1015mB
Afternoon 0.00520833mm 0 2374m 14°C 14_15 0cm 85% 15mph 29mph 1012mB
Morning 0.00520833mm 0 2535m 9°C 9_12 0cm 85% 12mph 26mph 1008mB
Afternoon 0.0104167mm 0.0625 2861m 14°C 14_12 0cm 59% 12mph 17mph 1006mB
Morning 0mm 0 2508m 9°C 9_10 0cm 89% 10mph 24mph 1008mB
Afternoon 0.255208mm 0.625 1717m 11°C 11_3 0cm 98% 3mph 6mph 1010mB
Morning 0.213542mm 0.125 928m 4°C 4_11 0cm 79% 11mph 25mph 1021mB
Afternoon 0.0208333mm 0.125 922m 6°C 6_14 0cm 54% 14mph 19mph 1027mB
Morning 0mm 0 580m 0°C 0_7 0cm 19% 7mph 16mph 1034mB
Afternoon 0mm 0 1091m 8°C 8_6 0cm 9% 6mph 8mph 1032mB

16 day outlook at a glance

Forecast issued: 21/02/2019 18:28:39

Chat

Your comments and questions. In a resort? Let us know what it's like!


Characters left 250

For terms and conditions see Readers Comments on the Cookie and privacy policy page.